Tracking 25693 objects as of 1-Jul-2022
HD Live streaming from Space Station
objects crossing your sky now

STARLINK-1798

Track STARLINK-1798 now!
10-day predictions
STARLINK-1798 is classified as:


NORAD ID: 46779
Int'l Code: 2020-074AS
Perigee: 553.4 km
Apogee: 555.4 km
Inclination: 53.1 °
Period: 95.6 minutes
Semi major axis: 6925 km
RCS: Unknown
Launch date: October 24, 2020
Source: United States (US)
Launch site: AIR FORCE EASTERN TEST RANGE (AFETR)
aabbcc
Your satellite tracking list
Your tracking list is empty




NASA's NSSDC Master Catalog

Two Line Element Set (TLE):
1 46779U 20074AS  22182.46974069  .00000968  00000-0  83921-4 0  9996
2 46779  53.0551 239.5328 0001442  56.6710 303.4417 15.06380342 93750
Source of the keplerian elements: AFSPC